Regional Weather Roundup
Issued by NWS

Home | Current Version | Previous Version | Graphics & Text | Print | Product List | Glossary On
Versions: 1 2 3 4 5 6 7 8 9 10 11 12 13 14 15 16 17 18 19 20 21 22 23 24 25 26 27 28 29 30 31 32 33 34 35 36 37 38 39 40 41 42 43 44 45 46 47 48 49 50
000
ASUS43 KBIS 282010
RWRND

NORTH DAKOTA REGIONAL WEATHER ROUNDUP
NATIONAL WEATHER SERVICE BISMARCK ND
300 PM CDT SAT MAY 28 2016

NOTE: "FAIR" INDICATES FEW OR NO CLOUDS BELOW 12,000 FEET WITH NO
SIGNIFICANT WEATHER AND/OR OBSTRUCTIONS TO VISIBILITY.


NDZ001>003-009>011-017-282100-
NORTHWEST NORTH DAKOTA

CITY           SKY/WX    TMP DP  RH WIND       PRES   REMARKS
WILLISTON      CLOUDY    68  52  56 NE6       29.86F
MINOT          CLOUDY    67  52  58 CALM      29.88S
MINOT AFB      CLOUDY    64  53  68 NE5       29.87F
$$

NDZ018>021-031>035-040>046-282100-
SOUTHWEST NORTH DAKOTA

CITY           SKY/WX    TMP DP  RH WIND       PRES   REMARKS
BISMARCK       RAIN      64  58  80 NE5       29.87S
DICKINSON      TSTM      55  51  86 SW10      29.88R FOG
GARRISON         N/A     67  54  63 E9        29.87F
HETTINGER ARPT PTSUNNY   71  45  39 SW17G24   29.88R
$$

NDZ004>008-012>016-024-026-027-054-282100-
NORTHEAST NORTH DAKOTA

CITY           SKY/WX    TMP DP  RH WIND       PRES   REMARKS
GRAND FORKS    CLOUDY    72  54  53 NE8       29.81F
GRND FRKS AFB  CLOUDY    72  54  53 NE8       29.82F
DEVILS LAKE    PTSUNNY   66  57  72 NW8       29.86F
$$

NDZ022-023-025-028>030-036>039-047>053-282100-
SOUTHEAST NORTH DAKOTA

CITY           SKY/WX    TMP DP  RH WIND       PRES   REMARKS
FARGO          CLOUDY    69  56  62 N13       29.79S
JAMESTOWN      CLOUDY    68  57  68 NW9       29.84S
$$





USA.gov is the U.S. government's official web portal to all federal, state and local government web resources and services.